EN

Hourly Weather Aberin

Today, 4 December, Friday

Time Temperature Precipitation Wind Pressure Humidity
00:00 +5°C° 0 mm 2 mps 700 mmHg 80%
01:00 +5°C° 2 mm 2 mps 699 mmHg 84%
02:00 +5°C° 2 mm 2 mps 699 mmHg 87%
03:00 +4°C° 2 mm 2 mps 698 mmHg 91%
04:00 +4°C° 1.1 mm 2 mps 698 mmHg 90%
05:00 +4°C° 1.1 mm 2 mps 698 mmHg 89%
06:00 +3°C° 1.1 mm 2 mps 698 mmHg 88%
07:00 +3°C° 0.1 mm 2 mps 698 mmHg 84%
08:00 +4°C° 0.1 mm 2 mps 698 mmHg 81%
09:00 +4°C° 0.1 mm 2 mps 698 mmHg 77%
10:00 +4°C° 0.1 mm 3 mps 698 mmHg 69%
11:00 +5°C° 0.1 mm 4 mps 698 mmHg 62%
12:00 +5°C° 0.1 mm 6 mps 698 mmHg 55%
13:00 +4°C° 0.1 mm 6 mps 698 mmHg 59%
14:00 +3°C° 0.1 mm 6 mps 698 mmHg 64%
15:00 +3°C° 0.1 mm 7 mps 697 mmHg 68%
16:00 +2°C° 0 mm 5 mps 698 mmHg 72%
17:00 +2°C° 0 mm 3 mps 698 mmHg 75%
18:00 +2°C° 0 mm 2 mps 698 mmHg 78%
19:00 +2°C° 0 mm 2 mps 698 mmHg 79%
20:00 +3°C° 0 mm 1 mps 699 mmHg 79%
21:00 +2°C° 0 mm 1 mps 699 mmHg 79%
22:00 +2°C° 0.1 mm 1 mps 700 mmHg 80%
23:00 +2°C° 0.1 mm 1 mps 700 mmHg 81%

Tomorrow, 5 December, Saturday

Time Temperature Precipitation Wind Pressure Humidity
00:00 +1°C° 0.1 mm 2 mps 700 mmHg 82%
01:00 +1°C° 0.2 mm 2 mps 700 mmHg 83%
02:00 +1°C° 0.2 mm 2 mps 700 mmHg 84%
03:00 +1°C° 0.2 mm 2 mps 701 mmHg 85%
04:00 +1°C° 0 mm 2 mps 701 mmHg 85%
05:00 -1°C° 0 mm 2 mps 701 mmHg 85%
06:00 -1°C° 0 mm 2 mps 701 mmHg 85%
07:00 -1°C° 0 mm 2 mps 702 mmHg 82%
08:00 +1°C° 0 mm 2 mps 702 mmHg 79%
09:00 +2°C° 0 mm 2 mps 703 mmHg 77%
10:00 +2°C° 0.5 mm 2 mps 702 mmHg 80%
11:00 +2°C° 0.5 mm 2 mps 702 mmHg 83%
12:00 +3°C° 0.5 mm 2 mps 702 mmHg 86%
13:00 +2°C° 1.8 mm 3 mps 702 mmHg 88%
14:00 +2°C° 1.8 mm 3 mps 702 mmHg 91%
15:00 +2°C° 1.8 mm 3 mps 702 mmHg 93%
16:00 +2°C° 1.2 mm 3 mps 703 mmHg 93%
17:00 +2°C° 1.2 mm 3 mps 703 mmHg 94%
18:00 +1°C° 1.2 mm 4 mps 704 mmHg 94%
19:00 +2°C° 0.2 mm 3 mps 704 mmHg 92%
20:00 +2°C° 0.2 mm 3 mps 705 mmHg 91%
21:00 +2°C° 0.2 mm 3 mps 705 mmHg 89%
22:00 +1°C° 0 mm 3 mps 705 mmHg 89%
23:00 +1°C° 0 mm 3 mps 706 mmHg 89%

Day after tomorrow, 6 December, Sunday

Time Temperature Precipitation Wind Pressure Humidity
00:00 +2°C° 0 mm 2 mps 706 mmHg 89%
01:00 0°C° 0 mm 3 mps 706 mmHg 87%
02:00 0°C° 0 mm 3 mps 706 mmHg 86%
03:00 0°C° 0 mm 3 mps 706 mmHg 84%
04:00 0°C° 0.6 mm 3 mps 706 mmHg 85%
05:00 0°C° 0.6 mm 3 mps 706 mmHg 86%
06:00 +1°C° 0.6 mm 2 mps 706 mmHg 88%
07:00 0°C° 1.2 mm 3 mps 706 mmHg 89%
08:00 -1°C° 1.2 mm 4 mps 706 mmHg 90%
09:00 0°C° 1.2 mm 4 mps 706 mmHg 91%
10:00 0°C° 1.1 mm 4 mps 706 mmHg 91%
11:00 +1°C° 1.1 mm 5 mps 707 mmHg 91%
12:00 +1°C° 1.1 mm 5 mps 707 mmHg 90%
13:00 +1°C° 0.7 mm 5 mps 707 mmHg 92%
14:00 +1°C° 0.7 mm 4 mps 707 mmHg 93%
15:00 +1°C° 0.7 mm 4 mps 707 mmHg 94%
16:00 +1°C° 0.1 mm 4 mps 707 mmHg 94%
17:00 +1°C° 0.1 mm 3 mps 708 mmHg 94%
18:00 +1°C° 0.1 mm 3 mps 708 mmHg 94%
19:00 +1°C° 0.2 mm 3 mps 709 mmHg 93%
20:00 +2°C° 0.2 mm 3 mps 709 mmHg 91%
21:00 +2°C° 0.2 mm 3 mps 709 mmHg 90%
22:00 +1°C° 0 mm 3 mps 710 mmHg 91%
23:00 +1°C° 0 mm 3 mps 710 mmHg 92%

7 December, Monday

Time Temperature Precipitation Wind Pressure Humidity
00:00 +1°C° 0 mm 3 mps 710 mmHg 93%
01:00 +1°C° 0 mm 3 mps 710 mmHg 93%
02:00 +1°C° 0 mm 2 mps 710 mmHg 93%
03:00 +1°C° 0 mm 2 mps 710 mmHg 93%
04:00 +1°C° 0.2 mm 2 mps 710 mmHg 92%
05:00 +1°C° 0.2 mm 2 mps 710 mmHg 92%
06:00 +1°C° 0.2 mm 2 mps 710 mmHg 91%
07:00 +2°C° 0.3 mm 2 mps 710 mmHg 89%
08:00 +3°C° 0.3 mm 1 mps 710 mmHg 87%
09:00 +3°C° 0.3 mm 1 mps 710 mmHg 86%
10:00 +4°C° 0 mm 1 mps 709 mmHg 84%
11:00 +5°C° 0 mm 1 mps 709 mmHg 83%
12:00 +6°C° 0 mm 1 mps 708 mmHg 82%
13:00 +4°C° 1 mm 2 mps 708 mmHg 85%
14:00 +4°C° 1 mm 2 mps 708 mmHg 88%
15:00 +4°C° 1 mm 2 mps 707 mmHg 91%
16:00 +4°C° 0.4 mm 2 mps 708 mmHg 91%
17:00 +4°C° 0.4 mm 2 mps 708 mmHg 91%
18:00 +4°C° 0.4 mm 3 mps 708 mmHg 90%
19:00 +5°C° 0.4 mm 2 mps 708 mmHg 91%
20:00 +4°C° 0.4 mm 2 mps 708 mmHg 91%
21:00 +4°C° 0.4 mm 2 mps 708 mmHg 91%
22:00 +5°C° 0.3 mm 2 mps 707 mmHg 90%
23:00 +4°C° 0.3 mm 3 mps 707 mmHg 88%

8 December, Tuesday

Time Temperature Precipitation Wind Pressure Humidity
00:00 +4°C° 0.3 mm 3 mps 707 mmHg 87%
01:00 +4°C° 1.1 mm 3 mps 707 mmHg 89%
02:00 +3°C° 1.1 mm 3 mps 707 mmHg 92%
03:00 +3°C° 1.1 mm 3 mps 707 mmHg 94%
04:00 +3°C° 0.3 mm 4 mps 707 mmHg 90%
05:00 +3°C° 0.3 mm 4 mps 707 mmHg 87%
06:00 +2°C° 0.3 mm 5 mps 707 mmHg 83%
07:00 +2°C° 0.2 mm 5 mps 708 mmHg 85%
08:00 +3°C° 0.2 mm 4 mps 708 mmHg 86%
09:00 +3°C° 0.2 mm 4 mps 708 mmHg 88%
10:00 +4°C° 0.1 mm 4 mps 708 mmHg 82%
11:00 +5°C° 0.1 mm 5 mps 708 mmHg 76%
12:00 +6°C° 0.1 mm 5 mps 708 mmHg 70%
13:00 +5°C° 0.3 mm 5 mps 708 mmHg 72%
14:00 +5°C° 0.3 mm 5 mps 708 mmHg 75%
15:00 +5°C° 0.3 mm 5 mps 708 mmHg 77%
16:00 +4°C° 0.6 mm 4 mps 708 mmHg 81%
17:00 +3°C° 0.6 mm 4 mps 708 mmHg 85%
18:00 +2°C° 0.6 mm 3 mps 708 mmHg 89%
19:00 +2°C° 0.2 mm 3 mps 708 mmHg 89%
20:00 +2°C° 0.2 mm 3 mps 708 mmHg 89%
21:00 +2°C° 0.2 mm 3 mps 708 mmHg 89%
22:00 +2°C° 0.6 mm 3 mps 708 mmHg 91%
23:00 +1°C° 0.6 mm 4 mps 709 mmHg 92%

9 December, Wednesday

Time Temperature Precipitation Wind Pressure Humidity
00:00 0°C° 0.6 mm 4 mps 709 mmHg 93%
01:00 +1°C° 0.6 mm 4 mps 709 mmHg 93%
02:00 +1°C° 0.6 mm 4 mps 709 mmHg 93%
03:00 +1°C° 0.6 mm 5 mps 710 mmHg 93%
04:00 +1°C° 0.5 mm 5 mps 710 mmHg 92%
05:00 +1°C° 0.5 mm 4 mps 710 mmHg 92%
06:00 +1°C° 0.5 mm 4 mps 710 mmHg 92%
07:00 +1°C° 0.2 mm 4 mps 711 mmHg 92%
08:00 +3°C° 0.2 mm 4 mps 711 mmHg 92%
09:00 +3°C° 0.2 mm 4 mps 712 mmHg 92%
10:00 +3°C° 0.1 mm 4 mps 712 mmHg 90%
11:00 +2°C° 0.1 mm 5 mps 712 mmHg 88%
12:00 +3°C° 0.1 mm 5 mps 712 mmHg 86%
13:00 +4°C° 0.1 mm 4 mps 712 mmHg 86%
14:00 +4°C° 0.1 mm 4 mps 712 mmHg 87%
15:00 +4°C° 0.1 mm 4 mps 712 mmHg 87%
16:00 +3°C° 0 mm 3 mps 712 mmHg 88%
17:00 +4°C° 0 mm 2 mps 712 mmHg 89%
18:00 +4°C° 0 mm 1 mps 712 mmHg 90%
19:00 +4°C° 0 mm 1 mps 712 mmHg 89%
20:00 +3°C° 0 mm 1 mps 712 mmHg 89%
21:00 +3°C° 0 mm 1 mps 712 mmHg 88%
22:00 +3°C° 0 mm 1 mps 712 mmHg 87%
23:00 +3°C° 0 mm 1 mps 711 mmHg 86%
Show more